Hourly Data Report for October 28, 2015

All times are specified in Local Standard Time (LST). Add 1 hour to adjust for Daylight Saving Time where and when it is observed.

ST LEONARD CS
NEW BRUNSWICK

47°09'28.050" N
67°49'55.014" W
245.00 m
810I001
71019
WIY

Download Data

Hourly Data (October 2015)
Hourly Data Report for October 28, 2015
Temp Definition
°C
Dew Point Temp Definition
°C
Rel Hum Definition
%
Wind Dir Definition
10's deg

Wind Spd Definition
km/h
Visibility Definition
km
Stn Press Definition
kPa
Hmdx Definition


Wind Chill Definition


Weather Definition


TIME
00:00 -1.1 -3.7 82 25 4   100.23   -2 LegendNANA
01:00 -2.4 -3.8 90 25 3   100.25   -4 LegendNANA
02:00 -2.9 -3.9 93 0 1   100.29   -3 LegendNANA
03:00 -3.4 -4.2 94 25 2   100.29   -4 LegendNANA
04:00 -3.9 -4.6 95 34 5   100.30   -6 LegendNANA
05:00 -4.1 -5.1 93 15 5   100.33   -6 LegendNANA
06:00 -2.9 -3.7 94 17 6   100.37   -5 LegendNANA
07:00 -3.7 -4.0 97 16 6   100.40   -6 LegendNANA
08:00 -3.0 -3.8 94 14 6   100.43   -5 LegendNANA
09:00 -0.4 -2.5 86 15 4   100.41   -2 LegendNANA
10:00 2.9 -1.3 74 14 4   100.30     LegendNANA
11:00 4.9 -1.4 64 18 8   100.24     LegendNANA
12:00 6.0 -2.0 57 14 11   100.15     LegendNANA
13:00 7.1 -2.7 50 16 9   100.07     LegendNANA
14:00 7.4 -2.2 50 20 15   99.97     LegendNANA
15:00 7.6 -2.3 49 18 14   99.90     LegendNANA
16:00 6.7 -1.6 55 18 13   99.84     LegendNANA
17:00 5.9 -0.6 63 14 11   99.76     LegendNANA
18:00 5.6 -0.4 65 15 12   99.68     LegendNANA
19:00 5.7 -0.6 64 15 15   99.58     LegendNANA
20:00 5.2 -0.3 68 14 13   99.50     LegendNANA
21:00 5.4 0.3 70 15 19   99.38     LegendNANA
22:00 4.5 2.8 89 14 20   99.25     LegendNANA
23:00 4.1 3.4 95 13 16   99.09     LegendNANA

Notes on Data Quality.

Legend

  • E = Estimated
  • M = Missing
  • NA = Not Available
  • ‡ = Partner data that is not subject to review by the National Climate Archives
Date modified: